Location: Kranebitten
(47.2667°N, 11.3333°E)
Time: 07:10:25
(UTC+00:00)

Daily predictions for brighter satellites

Satellite Brightness Start Highest point End
(mag) Time Altitude Azimuth Time Altitude Azimuth Time Altitude Azimuth
FengYun 1-2 T 4.4 16:27:10 10° SE 16:32:39 56° ENE 16:38:10 10° N
Cosmos 1110 Rocket 4.1 16:28:35 10° S 16:33:44 59° ESE 16:38:52 10° NNE
Lacrosse 5 3.2 16:34:23 10° WNW 16:38:52 31° NNW 16:43:22 10° NE
Timation 2 Rocket 4.2 16:33:27 10° NNW 16:40:01 65° ENE 16:46:46 10° SE
Cosmos 1825 Rocket 3.5 16:36:26 10° N 16:40:54 69° E 16:45:18 10° SSE
Envisat 3.8 16:37:56 10° S 16:42:55 58° W 16:47:58 10° NNW
Cosmos 292 Rocket 4.0 16:38:27 10° S 16:43:01 48° ESE 16:47:40 10° NNE
Aureole 3 4.0 16:41:22 10° SE 16:43:43 20° E 16:45:58 10° NE
ADEOS Rocket 3.5 16:37:21 10° NNE 16:43:44 77° WNW 16:50:49 10° SSW
Okean O Rocket 1.8 16:40:40 10° S 16:45:01 79° WSW 16:49:24 10° NNW
Meteor 2-21 Rocket 4.5 16:39:34 10° N 16:45:45 66° ENE 16:51:49 10° SSE
FALCON 9 DEB 4.4 16:42:42 10° WNW 16:45:47 30° N 16:48:51 10° ENE
YAOGAN 1 3.8 16:43:54 10° ESE 16:47:06 21° ENE 16:50:19 10° NNE
USA 281 3.5 16:41:15 10° SSE 16:47:49 78° WSW 16:54:25 10° NNW
ERBS 4.5 16:45:42 10° NW 16:48:01 17° N 16:50:19 10° NNE
FALCON 9 DEB 3.5 16:45:07 10° SW 16:48:13 44° SE 16:51:05 11° ENE
FALCON 9 DEB 3.3 16:49:21 10° SW 16:52:28 50° SE 16:55:10 13° ENE
Feng Yun 1-1 Rocket 4.4 16:47:31 10° SSE 16:53:20 64° ENE 16:59:12 10° N
CZ-2C R/B 4.1 16:48:27 10° ESE 16:53:23 30° ENE 16:58:10 10° N
SMAP 3.6 16:49:18 10° S 16:53:54 65° WSW 16:58:34 10° NNW
Cosmos 2219 3.4 16:49:37 10° NNW 16:55:18 55° ENE 17:00:56 10° SE
Cosmos 1455 4.0 16:54:27 10° ESE 16:56:06 13° E 16:56:10 13° E
Cosmos 1726 Rocket 3.5 16:52:43 10° S 16:57:00 61° E 17:01:20 10° NNE
Cosmos 1758 Rocket 4.3 16:55:19 10° NNW 16:59:39 58° W 17:03:55 10° S
Cosmos 1553 Rocket 4.5 16:54:12 10° SSE 17:00:00 39° E 17:05:43 10° NNE
USA 307 3.6 16:57:21 10° NW 17:01:27 41° NNE 17:04:41 15° E
Meteor 2-10 Rocket 4.5 16:58:41 10° SE 17:02:58 25° E 17:07:08 10° NE
Cosmos 2082 4.5 16:58:41 10° NNW 17:03:48 32° NE 17:08:49 10° ESE
Cosmos 2228 3.0 16:59:49 10° S 17:04:04 85° WNW 17:08:22 10° N
FALCON 9 DEB 3.1 17:01:14 10° SW 17:04:26 61° SSE 17:06:44 17° ENE
Cosmos 1939 Rocket 2.9 17:00:59 10° SSE 17:04:51 55° ENE 17:08:42 10° N
CZ-4B R/B 1.3 17:02:23 10° NNE 17:05:37 81° WNW 17:08:46 10° SSW
USA 308 3.5 17:02:12 10° NW 17:06:19 43° NNE 17:09:20 17° E
ATLAS 5 CENTAUR R/B 3.9 17:05:28 10° WNW 17:08:21 17° NNW 17:11:31 10° NNE
Helios 1A Rocket 3.1 17:08:06 10° SE 17:12:03 47° ENE 17:16:00 10° N
Cosmos 1606 Rocket 3.8 17:08:16 10° SSW 17:12:38 74° W 17:17:03 10° N
FALCON 9 DEB 2.9 17:12:52 10° SW 17:16:04 79° SSE 17:17:56 23° ENE
ARGOS 4.2 17:13:10 13° ESE 17:16:54 25° ENE 17:21:17 10° N
Okean-O 2.8 17:14:14 10° SE 17:18:30 50° ENE 17:22:48 10° N
SKYMED 2 3.5 17:15:29 10° NNE 17:19:49 64° ESE 17:24:07 10° S
Cosmos 1689 Rocket 1.9 17:18:11 10° NNE 17:21:02 58° E 17:23:54 10° S
Cosmos 1656 3.8 17:16:18 10° S 17:21:40 52° ESE 17:27:08 10° NE
SL-08 R/B 4.4 17:15:45 10° N 17:21:53 62° ENE 17:27:56 10° SSE
Cosmos 1400 Rocket 2.7 17:20:15 10° S 17:24:21 74° E 17:28:26 10° NNE
Cosmos 1745 Rocket 4.2 17:18:58 10° N 17:25:04 49° ENE 17:31:10 10° SSE
H-2A R/B 2.6 17:21:24 10° SE 17:26:22 38° ENE 17:31:22 10° N
PSLV R/B 3.9 17:23:56 10° NNE 17:28:06 64° ESE 17:32:12 10° S
GEOS 3 Rocket 4.0 17:24:33 18° ESE 17:28:15 46° NE 17:33:25 10° NNW
CZ-4 R/B 1.3 17:25:02 10° SSE 17:28:50 55° ENE 17:32:37 10° N
Cosmos 2227 Rocket 2.1 17:23:36 10° NNW 17:29:17 75° ENE 17:34:56 10° SSE
Cosmos 2058 3.2 17:25:54 10° N 17:29:49 42° ENE 17:33:43 10° SSE
Cosmos 1892 2.7 17:27:19 10° N 17:31:11 60° ENE 17:35:01 10° SSE
Cosmos 2263 Rocket 3.6 17:30:30 10° N 17:34:35 20° NE 17:35:34 19° NE
CSL-04 Rocket 4.0 17:29:25 10° SE 17:34:39 45° ENE 17:39:52 10° N
Cosmos 1408 2.9 17:31:52 10° N 17:35:22 42° ENE 17:37:15 23° SE
BREEZE-M R/B 3.6 17:28:00 10° W 17:35:59 68° N 17:37:09 34° ENE
NOSS 3-4 (A) 4.4 17:34:35 10° NNW 17:40:49 37° NNE 17:44:11 25° E
NOSS 3-4 (C) 4.4 17:34:42 10° NNW 17:40:55 37° NNE 17:44:16 25° E
CZ-4C R/B 4.0 17:35:51 10° NNW 17:41:10 25° NNE 17:44:25 19° NE
Meteor 2-1 Rocket 4.3 17:35:57 10° SSE 17:41:11 48° E 17:46:29 10° NNE
Cosmos 1300 4.2 17:39:13 10° SW 17:42:48 38° WNW 17:46:25 10° N
Cosmos 2058 Rocket 3.5 17:41:33 10° SSW 17:46:01 67° WNW 17:50:31 10° N
Cosmos 1697 Rocket 2.9 17:40:59 10° S 17:46:16 44° ESE 17:49:37 21° NE
CZ-2D R/B 3.6 17:44:01 10° S 17:47:48 66° W 17:51:37 10° NNW
SeaSat 1 3.0 17:46:28 32° E 17:47:51 39° NE 17:52:26 10° NNW
SL-4 R/B 2.3 17:44:52 10° WNW 17:48:20 45° N 17:49:04 39° NE
Cosmos 1346 Rocket 2.6 17:46:07 10° N 17:50:07 73° ENE 17:54:07 10° SSE
NOSS 3-3 (A) 4.1 17:45:32 10° SSW 17:51:03 49° ESE 17:54:17 26° ENE
NOSS 3-3 (C) 4.1 17:45:37 10° SSW 17:51:10 49° ESE 17:54:24 26° ENE
CRYOSAT 2 4.4 17:47:19 10° NNE 17:52:06 54° E 17:56:51 10° S
USA 305 2.9 17:48:03 10° WNW 17:52:21 66° NNE 17:53:27 46° E
Cosmos 1825 2.7 17:48:44 10° N 17:51:37 38° NE 17:51:37 38° NE
Cosmos 1709 Rocket 4.2 17:48:41 10° N 17:54:51 48° ENE 17:59:42 16° SE
USA 215 3.8 17:51:39 26° ENE 17:54:52 44° NNE 18:00:59 10° NW
Cosmos 44 4.2 17:50:40 10° WSW 17:55:02 45° NW 17:59:04 13° NNE
Cosmos 1315 Rocket 2.8 17:51:39 10° S 17:55:31 55° E 17:56:19 45° NE
SJ-11-01 4.2 17:53:43 15° SSE 17:57:33 65° ENE 18:02:12 10° N
USA 306 2.8 17:54:28 10° WNW 17:58:45 71° NNE 17:59:35 54° E
BREEZE-M R/B 3.7 17:58:09 10° WNW 18:02:16 76° NNE 18:05:18 35° E
ATLAS 2AS CENTAUR R/B 3.4 17:55:52 10° NW 18:02:59 40° NNE 18:05:17 32° ENE
Cosmos 968 Rocket 3.8 17:59:23 10° NNW 18:04:35 68° WSW 18:09:43 10° S
Cosmos 1340 4.3 18:01:26 10° NNW 18:04:54 34° W 18:08:20 10° SSW
COSMO-SKYMED 1 3.8 18:03:42 10° N 18:07:49 42° WNW 18:11:54 10° SW
MOS 1 Rocket 3.2 18:04:02 10° NNE 18:08:42 69° ESE 18:13:38 10° S
Cosmos 1980 Rocket 3.1 18:03:53 10° S 18:07:19 30° SE 18:07:19 30° SE
Cosmos 2297 Rocket 3.2 18:03:37 10° NW 18:09:02 47° WSW 18:14:26 10° S
Cosmos 1076 Rocket 3.3 18:05:51 10° N 18:10:07 83° E 18:11:35 40° SSE
Cosmos 883 Rocket 4.4 18:04:56 10° S 18:10:56 58° E 18:16:56 10° NNE
Cosmos 2315 Rocket 4.0 18:09:01 10° SSE 18:14:58 51° E 18:20:57 10° NNE
CSL-04 Debris 4.1 18:09:36 10° SSE 18:15:03 85° WSW 18:20:34 10° NNW
S3M 3.9 18:09:22 10° S 18:15:29 85° W 18:21:42 10° N
YAOGAN 1 3.6 18:18:45 10° S 18:22:55 46° W 18:27:06 10° NNW
Lacrosse 5 3.1 18:18:37 10° NW 18:23:02 29° N 18:23:30 29° NNE
Cosmos 2360 4.1 18:19:24 10° SSW 18:25:05 69° ESE 18:26:15 54° ENE
Cosmos 1812 Rocket 3.6 18:25:59 10° SSW 18:30:24 78° W 18:30:37 76° NW
Cosmos 1455 2.9 18:27:32 10° SSW 18:31:13 52° WNW 18:31:13 52° WNW
CZ-2C R/B 4.1 18:27:23 10° S 18:33:00 50° W 18:38:29 10° NNW
Cosmos 1503 Rocket 4.4 18:29:45 10° NNW 18:34:55 63° WSW 18:37:12 33° S
Meteor 2-3 Rocket 4.4 18:30:40 10° N 18:34:43 40° NNE 18:34:43 40° NNE
Cosmos 44 Rocket 4.4 18:32:53 10° SSW 18:35:27 32° SSW 18:35:27 32° SSW
Cosmos 2278 4.2 18:32:44 10° SSW 18:36:46 45° S 18:36:46 45° S
USA 307 3.6 18:37:27 10° WNW 18:40:52 52° W 18:40:52 52° W
USA 308 3.9 18:42:18 10° WNW 18:45:31 46° W 18:45:31 46° W
Cosmos 2082 4.4 18:42:36 10° NW 18:48:09 51° WSW 18:50:46 29° SSW
ATLAS 5 CENTAUR R/B 4.2 18:52:36 10° NNW 18:55:01 14° N 18:55:01 14° N
ARGOS 3.7 18:54:41 34° SSW 18:56:49 55° W 19:02:11 10° NNW
Cosmos 2369 4.1 18:56:26 10° SW 19:02:05 61° WNW 19:03:11 51° NNW
CZ-4 R/B 4.4 19:02:17 10° WSW 19:04:12 13° W 19:06:07 10° WNW
Ariane Rocket 4.2 19:07:51 36° NNW 19:07:51 36° NNW 19:10:50 10° NNW
H-2A R/B 3.6 19:00:50 10° SSW 19:05:46 35° W 19:10:46 10° NNW
Cosmos 2263 Rocket 3.2 19:13:39 10° NNW 19:17:16 41° NNW 19:17:16 41° NNW
Atlas Centaur 2 4.4 19:14:30 10° SW 19:20:08 23° SSW 19:20:08 23° SSW
SeaSat 1 3.9 19:26:15 33° W 19:26:15 33° W 19:29:56 10° NW
Cosmos 1697 Rocket 4.1 19:25:16 10° WSW 19:30:21 34° NW 19:31:25 32° NNW
CZ-4C R/B 3.4 19:24:15 10° NW 19:29:36 49° N 19:29:36 49° N
NOSS 3-4 (A) 4.0 19:25:20 10° NW 19:31:39 70° W 19:31:39 70° W
NOSS 3-4 (C) 4.0 19:25:27 10° NW 19:31:43 70° W 19:31:43 70° W
USA 215 3.7 19:39:00 57° NW 19:39:00 57° NW 19:44:05 10° NW
Cosmos 1980 Rocket 4.4 19:47:38 10° WSW 19:49:11 18° WSW 19:49:11 18° WSW
ATLAS 2AS CENTAUR R/B 3.4 19:47:05 10° NW 19:52:43 52° WNW 19:52:43 52° WNW
